Gastonia, NC

9:10 AM EST on February 24, 2018 (GMT -0500)
Gastonia Municipal

Weather History for KAKH - March, 2014

Change the Weather History Date:

Wednesday, March 12, 2014

  Actual Average (KCLT) Record (KCLT)
Temperature  
Mean Temperature 60 °F -  
Max Temperature 75 °F 64 °F 86 °F (1990)
Min Temperature 45 °F 40 °F 19 °F (1969)
Degree Days  
Heating Degree Days 6    
Growing Degree Days 10 (Base 50)    
Moisture  
Dew Point 52 °F    
Average Humidity 75    
Maximum Humidity 96    
Minimum Humidity 39    
Precipitation  
Precipitation 0.05 in - - ()
Sea Level Pressure  
Sea Level Pressure 29.53 in    
Wind  
Wind Speed 9 mph (SW)    
Max Wind Speed 18 mph    
Max Gust Speed 37 mph    
Visibility 8 miles    
Events Rain    
Averages and records for this station are not official NWS values.
T = Trace of Precipitation, MM = Missing Value Source: NWS Daily Summary

Daily Weather History Graph

Daily Weather History Graph

Search for Another Location

Airport or City:

Trip Planner

Search our weather history database for the weather conditions in past years. The results will help you decide how hot, cold, wet, or windy it might be!

Date:

Astronomy

Mar. 12, 2014 Rise Set
Actual Time 7:39 AM EDT 7:29 PM EDT
Civil Twilight 7:14 AM EDT 7:55 PM EDT
Nautical Twilight 6:44 AM EDT 8:24 PM EDT
Astronomical Twilight 6:15 AM EDT 8:54 PM EDT
Moon 4:05 PM EDT (3/12) 5:03 AM EDT (3/12)
Length of Visible Light 12h 40m
Length of Day
11h 50m
Waxing Gibbous, 85% of the Moon is Illuminated
Mar 12
Waxing Gibbous
Mar 16
Full
Mar 23
Last Quarter
Mar 30
New
Apr 7
First Quarter

Hourly Weather History & Observations

Time (EDT) Temp. Windchill Dew Point Humidity Pressure Visibility Wind Dir Wind Speed Gust Speed Precip Events Conditions
12:54 AM 66.0 °F - 46.9 °F 50% 29.66 in 10.0 mi WSW 5.8 mph - N/A   Partly Cloudy
1:54 AM 64.9 °F - 48.0 °F 54% 29.65 in 10.0 mi WSW 6.9 mph - N/A   Clear
2:54 AM 64.9 °F - 50.0 °F 58% 29.63 in 10.0 mi SW 8.1 mph - N/A   Scattered Clouds
3:54 AM 64.9 °F - 52.0 °F 63% 29.61 in 10.0 mi SW 6.9 mph - N/A   Scattered Clouds
4:54 AM 64.9 °F - 52.0 °F 63% 29.60 in 9.0 mi SW 11.5 mph 24.2 mph N/A   Partly Cloudy
5:54 AM 61.0 °F - 55.0 °F 81% 29.59 in 9.0 mi SW 9.2 mph - 0.00 in   Overcast
6:54 AM 60.1 °F - 57.0 °F 90% 29.57 in 9.0 mi SW 6.9 mph - 0.00 in Rain Light Rain
7:22 AM 60.1 °F - 57.0 °F 90% 29.58 in 9.0 mi SSW 6.9 mph - 0.00 in   Overcast
7:30 AM 60.1 °F - 57.0 °F 90% 29.58 in 8.0 mi SW 8.1 mph - 0.00 in Rain Light Rain
7:54 AM 59.0 °F - 57.0 °F 93% 29.56 in 6.0 mi Variable 6.9 mph - 0.01 in Rain Light Rain
8:08 AM 59.0 °F - 57.9 °F 96% 29.57 in 6.0 mi SSW 8.1 mph - 0.00 in Rain Light Rain
8:21 AM 59.0 °F - 57.9 °F 96% 29.57 in 1.8 mi SSW 9.2 mph 17.3 mph 0.00 in Rain Light Rain
8:36 AM 59.0 °F - 57.9 °F 96% 29.57 in 1.2 mi SSW 6.9 mph - 0.01 in Rain Light Rain
8:54 AM 59.0 °F - 57.9 °F 96% 29.55 in 2.0 mi SSW 5.8 mph - 0.01 in Rain Light Rain
9:41 AM 59.0 °F - 57.9 °F 96% 29.54 in 2.0 mi SSW 4.6 mph - 0.02 in Rain Light Rain
9:52 AM 59.0 °F - 57.2 °F 94% 29.54 in 5.0 mi SSW 9.2 mph - 0.02 in Rain Light Rain
9:54 AM 60.1 °F - 57.9 °F 93% 29.53 in 6.0 mi SSW 11.5 mph - 0.02 in   Overcast
10:27 AM 60.1 °F - 57.9 °F 93% 29.52 in 1.8 mi SSW 10.4 mph 17.3 mph 0.00 in Rain Light Rain
10:41 AM 60.1 °F - 57.9 °F 93% 29.51 in 2.5 mi SSW 11.5 mph 19.6 mph 0.00 in Rain Light Rain
10:51 AM 60.8 °F - 57.2 °F 88% 29.51 in 3.0 mi SW 9.2 mph 17.3 mph 0.00 in   Overcast
10:54 AM 60.1 °F - 57.9 °F 93% 29.50 in 3.0 mi SSW 8.1 mph 17.3 mph 0.00 in   Overcast
11:41 AM 61.0 °F - 59.0 °F 93% 29.48 in 9.0 mi SSW 8.1 mph 20.7 mph N/A   Overcast
11:54 AM 61.0 °F - 57.9 °F 90% 29.47 in 10.0 mi SSW 8.1 mph 20.7 mph N/A   Overcast
12:06 PM 61.0 °F - 57.9 °F 90% 29.47 in 10.0 mi SW 9.2 mph 17.3 mph N/A   Overcast
12:18 PM 61.0 °F - 57.9 °F 90% 29.47 in 10.0 mi SW 10.4 mph 24.2 mph N/A   Overcast
12:51 PM 62.6 °F - 57.2 °F 82% 29.45 in 10.0 mi SSW 9.2 mph 20.7 mph N/A   Overcast
12:54 PM 62.1 °F - 59.0 °F 90% 29.44 in 10.0 mi SSW 9.2 mph 20.7 mph N/A   Overcast
1:54 PM 64.9 °F - 59.0 °F 81% 29.39 in 10.0 mi SW 9.2 mph 19.6 mph N/A   Overcast
2:54 PM 71.1 °F - 57.9 °F 63% 29.34 in 10.0 mi SW 18.4 mph 27.6 mph N/A   Mostly Cloudy
3:54 PM 73.9 °F - 55.0 °F 52% 29.30 in 10.0 mi SW 17.3 mph 29.9 mph N/A   Partly Cloudy
4:54 PM 73.9 °F - 52.0 °F 46% 29.29 in 10.0 mi WSW 15.0 mph 28.8 mph N/A   Mostly Cloudy
5:54 PM 73.0 °F - 52.0 °F 48% 29.31 in 10.0 mi WSW 16.1 mph 33.4 mph 0.00 in   Mostly Cloudy
6:54 PM 61.0 °F - 39.9 °F 46% 29.43 in 10.0 mi NW 12.7 mph 33.4 mph 0.01 in   Partly Cloudy
7:54 PM 52.0 °F - 30.0 °F 43% 29.54 in 10.0 mi NW 15.0 mph 29.9 mph N/A   Overcast
8:54 PM 48.9 °F - 28.0 °F 44% 29.60 in 10.0 mi NW 17.3 mph 28.8 mph N/A   Clear
9:54 PM 48.0 °F - 26.1 °F 42% 29.65 in 10.0 mi WNW 8.1 mph 29.9 mph N/A   Clear
10:54 PM 46.0 °F 40.6 °F 21.9 °F 39% 29.69 in 10.0 mi NW 11.5 mph 36.8 mph N/A   Clear
11:54 PM 45.0 °F 40.6 °F 23.0 °F 42% 29.73 in 10.0 mi WNW 8.1 mph - N/A   Overcast